West Plains, MO

2:55 PM CDT on September 24, 2017 (GMT -0500)
West Plains Municipal

Weather History for KUNO - September, 2013

Change the Weather History Date:

Sunday, September 8, 2013

  Actual Average Record
Temperature  
Mean Temperature 77 °F 72 °F  
Max Temperature 88 °F 84 °F 99 °F (1990)
Min Temperature 66 °F 60 °F 40 °F (1956)
Degree Days  
Heating Degree Days 0 0  
Month to date heating degree days 0 0  
Since 1 July heating degree days 4 1  
Cooling Degree Days 12 7  
Month to date cooling degree days 73 68  
Year to date cooling degree days 915 1240  
Growing Degree Days 28 (Base 50)    
Moisture  
Dew Point 67 °F    
Average Humidity 69    
Maximum Humidity 87    
Minimum Humidity 50    
Precipitation  
Precipitation 0.00 in 0.14 in 1.46 in (2007)
Month to date precipitation 0.08 1.18  
Year to date precipitation 42.31 31.25  
Sea Level Pressure  
Sea Level Pressure 29.96 in    
Wind  
Wind Speed 3 mph (SW)    
Max Wind Speed 13 mph    
Max Gust Speed 16 mph    
Visibility 9 miles    
Events      
T = Trace of Precipitation, MM = Missing Value Source: NWS Daily Summary

Daily Weather History Graph

Daily Weather History Graph

Search for Another Location

Airport or City:

Trip Planner

Search our weather history database for the weather conditions in past years. The results will help you decide how hot, cold, wet, or windy it might be!

Date:

Astronomy

Sep. 08, 2013 Rise Set
Actual Time 6:44 AM CDT 7:25 PM CDT
Civil Twilight 6:18 AM CDT 7:51 PM CDT
Nautical Twilight 5:47 AM CDT 8:22 PM CDT
Astronomical Twilight 5:15 AM CDT 8:53 PM CDT
Moon 9:56 AM CDT (9/8) 9:07 PM CDT (9/8)
Length of Visible Light 13h 33m
Length of Day
12h 40m
Waxing Crescent, 11% of the Moon is Illuminated
Sep 8
Waxing Crescent
Sep 12
First Quarter
Sep 19
Full
Sep 26
Last Quarter
Oct 4
New

Hourly Weather History & Observations

Time (CDT) Temp. Heat Index Dew Point Humidity Pressure Visibility Wind Dir Wind Speed Gust Speed Precip Events Conditions
12:53 AM 71.1 °F - 64.0 °F 78% 29.96 in 10.0 mi Calm Calm - N/A   Clear
1:53 AM 75.0 °F - 64.0 °F 69% 29.96 in 10.0 mi SW 5.8 mph - N/A   Clear
2:53 AM 73.9 °F - 64.0 °F 71% 29.95 in 10.0 mi SW 5.8 mph - N/A   Clear
3:53 AM 71.1 °F - 64.0 °F 78% 29.95 in 10.0 mi WSW 3.5 mph - N/A   Clear
4:53 AM 69.1 °F - 64.0 °F 84% 29.95 in 10.0 mi Calm Calm - N/A   Clear
5:53 AM 68.0 °F - 64.0 °F 87% 29.95 in 9.0 mi WSW 3.5 mph - N/A   Clear
6:53 AM 68.0 °F - 64.0 °F 87% 29.96 in 8.0 mi WSW 3.5 mph - N/A   Clear
7:53 AM 73.0 °F - 66.0 °F 79% 29.95 in 9.0 mi WSW 4.6 mph - N/A   Clear
8:53 AM 75.0 °F - 66.9 °F 76% 29.97 in 10.0 mi Calm Calm - N/A   Clear
9:53 AM 79.0 °F - 66.0 °F 64% 29.98 in 10.0 mi WSW 5.8 mph - N/A   Clear
10:53 AM 82.9 °F 85.0 °F 66.0 °F 56% 30.00 in 10.0 mi Calm Calm - N/A   Clear
11:53 AM 82.0 °F 84.5 °F 66.9 °F 60% 30.00 in 10.0 mi NW 3.5 mph - N/A   Partly Cloudy
12:53 PM 84.9 °F 86.6 °F 64.9 °F 51% 29.99 in 1.2 mi North 3.5 mph - N/A   Haze
1:04 PM 84.2 °F 86.6 °F 66.2 °F 55% 30.03 in 10.0 mi North 5.8 mph - N/A   Clear
1:53 PM 84.9 °F 87.6 °F 66.9 °F 55% 29.97 in 10.0 mi ENE 8.1 mph - N/A   Clear
2:53 PM 84.9 °F 87.1 °F 66.0 °F 53% 29.95 in 10.0 mi SE 5.8 mph - N/A   Clear
3:53 PM 86.0 °F 88.2 °F 66.0 °F 51% 29.92 in 10.0 mi South 6.9 mph - N/A   Clear
4:53 PM 88.0 °F 90.7 °F 66.9 °F 49% 29.91 in 10.0 mi South 3.5 mph - N/A   Clear
5:53 PM 87.1 °F 90.6 °F 68.0 °F 53% 29.91 in 10.0 mi South 6.9 mph - N/A   Clear
6:53 PM 82.9 °F 87.0 °F 70.0 °F 65% 29.92 in 10.0 mi Calm Calm - N/A   Partly Cloudy
7:53 PM 79.0 °F - 71.1 °F 77% 29.93 in 10.0 mi Calm Calm - N/A   Scattered Clouds
8:53 PM 78.1 °F - 71.1 °F 79% 29.94 in 9.0 mi Calm Calm - N/A   Mostly Cloudy
9:53 PM 77.0 °F - 70.0 °F 79% 29.95 in 9.0 mi Calm Calm - N/A   Mostly Cloudy
10:53 PM 75.9 °F - 70.0 °F 82% 29.95 in 9.0 mi Calm Calm - N/A   Scattered Clouds
11:53 PM 75.9 °F - 71.1 °F 85% 29.94 in 9.0 mi Calm Calm - N/A   Partly Cloudy